Regional Weather Roundup
Issued by NWS Newport/Morehead, NC

Current Version | Previous Version | Graphics & Text | Print | Product List | Glossary Off
Versions: 1 2 3 4 5 6 7 8 9 10 11 12 13 14 15 16 17 18 19 20 21 22 23 24 25 26 27 28 29 30 31 32 33 34 35 36 37 38 39 40 41 42 43 44 45 46 47 48 49 50

000
ASUS42 KMHX 130513
RWRMHX
WEATHER ROUNDUP FOR EASTERN NORTH CAROLINA
NATIONAL WEATHER SERVICE NEWPORT/MOREHEAD CITY NC
1200 AM EST WED DEC 13 2017

NOTE: "FAIR" INDICATES FEW OR NO CLOUDS BELOW 12,000 FEET
WITH NO SIGNIFICANT WEATHER AND/OR OBSTRUCTIONS TO VISIBILITY

NCZ015>017-031-032-045>047-102-103-130600-
NORTH COAST

CITY           SKY/WX    TMP DP  RH WIND       PRES   REMARKS
EDENTON        CLEAR     36  14  40 NW13G23   29.75R
ELIZABETH CITY CLEAR     34  10  37 W21G33    29.73R
KITTY HAWK     CLOUDY    35  28  73 NW14G21   29.68R
MANTEO         CLOUDY    37  28  71 N15G25    29.70R

$$

NCZ045>047-081-094-103-104-130600-
CENTRAL COAST

CITY           SKY/WX    TMP DP  RH WIND       PRES   REMARKS
FRISCO         CLOUDY    41  27  57 NW20G30   29.70R

$$

NCZ095-097-098-100-101-130600-
SOUTHERN COAST

CITY           SKY/WX    TMP DP  RH WIND       PRES   REMARKS
BEAUFORT       CLEAR     39  25  57 NW24G31   29.78R
CEDAR ISLAND   NOT AVBL
JACKSONVILLE   CLEAR     38  21  50 NW18G24   29.80R
PINEY ISLAND     N/A    N/A N/A N/A W26G33    29.75R
WILMINGTON     CLEAR     39  14  36 NW17G24   29.82R


$$

NCZ011>013-027>030-043-044-078>080-089-090>093-098-130600-
COASTAL PLAIN

CITY           SKY/WX    TMP DP  RH WIND       PRES   REMARKS
AHOSKIE        CLEAR     31   5  33 NW6       29.78R
CLINTON        CLEAR     36  15  42 NW9       29.83R
ELIZABETHTOWN  NOT AVBL
GOLDSBORO      CLEAR     34  14  44 NW9       29.80R
GREENVILLE     CLEAR     34  18  51 NW10      29.82R
HAVELOCK       PTCLDY    37  17  44 NW16G31   29.80R
KENANSVILLE    CLEAR     36  18  48 NW13G20   29.82R
KINSTON        CLEAR     34  15  45 NW14G20   29.82R
NEW BERN       CLEAR     35  16  45 NW17G30   29.80R
RICHLANDS      CLEAR     35  20  54 VRB6      29.81R
ROCKY MOUNT    CLEAR     31  15  52 NW13G22   29.82R
WASHINGTON     PTCLDY    34  17  48 NW9G23    29.79R
WHITEVILLE     CLEAR     38  21  49 W3        29.84R

$$

AMZ130-135-150-152-154-156-158-170-250-252-270-ANZ085-086-088-633-658-670-130600-
MARINE OBSERVATIONS

STATION/POSITION TIME  TEMP    WIND        PRES    WAVE   SWELL
                       AIR SEA DIR/SP/G            HT/PER HT/PER
                 (UTC) (F)     (DEG/KT/KT) (MB)    (FT/S) (FT/S)
CHESAPEAKE LIGHT NOT AVBL
64 E VA BEACH    0450   40 60  300/ 31/ 37 1002.4   11/ 7
DUCK             0436   37 56  330/ 24/ 28 1004.6
2 E DUCK         0500      56                N/A     6/ 6
OREGON INLET     0436   34 47  330/ 13/ 22 1005.0
13E OREGON INLT  0448      59                N/A     7/ 6   3/ 9
HATTERAS CG      0436   42 56  310/ 27/ 32 1005.3
DIAMOND BUOY     0500   45 72  300/ 29/ 39 1005.4
CAPE LOOKOUT     0500          310/ 20/ 26 1007.8
BEAUFORT LAB     0436   39 52  320/ 13/ 20 1007.6
30 SE NEW RVR IN 0408   48 63  350/ 21/ 29 1007.5
30 SE NEW RVR IN 0500      63                N/A     9/ 6   2/11
27 SE WRIGHTSVLE 0408   49 65  310/ 31/ 45 1007.8
5 SE WRIGHTSVLE  0408   47 58  320/ 21/ 33 1007.7
225 S CAPE HAT   0450   67 75  290/ 27/ 37 1004.5   17/10
41 SE CHARLESTON 0500   53 74  310/ 27/ 35 1010.6

$$



USA.gov is the U.S. government's official web portal to all federal, state and local government web resources and services.